Fes-Sais, Morocco

9:37 PM WEST on October 21, 2017 (GMT +0100)
Fes-Sais

Weather History for GMFF - March, 2014

Change the Weather History Date:

Thursday, March 6, 2014

  Actual Average Record
Temperature  
Mean Temperature 52 °F -  
Max Temperature 72 °F 67 °F 78 °F (2001)
Min Temperature 33 °F 43 °F 33 °F (2008)
Degree Days  
Heating Degree Days 12    
Growing Degree Days 2 (Base 50)    
Moisture  
Dew Point 44 °F    
Average Humidity 70    
Maximum Humidity 100    
Minimum Humidity 26    
Precipitation  
Precipitation 0.00 in 0.12 in - ()
Sea Level Pressure  
Sea Level Pressure 30.05 in    
Wind  
Wind Speed 5 mph ()    
Max Wind Speed 12 mph    
Max Gust Speed -    
Visibility 6.1 miles    
Events      
Averages and records for this station are not official NWS values.
T = Trace of Precipitation, MM = Missing Value Source: Averaged Metar Reports

Daily Weather History Graph

Daily Weather History Graph

Search for Another Location

Airport or City:

Trip Planner

Search our weather history database for the weather conditions in past years. The results will help you decide how hot, cold, wet, or windy it might be!

Date:

Astronomy

Mar. 06, 2014 Rise Set
Actual Time 6:42 AM WET 6:20 PM WET
Civil Twilight 6:17 AM WET 6:45 PM WET
Nautical Twilight 5:48 AM WET 7:14 PM WET
Astronomical Twilight 5:19 AM WET 7:43 PM WET
Moon 9:55 AM WET (3/6) 11:56 PM WET (3/6)
Length of Visible Light 12h 27m
Length of Day
11h 37m
Waxing Crescent, 30% of the Moon is Illuminated
Mar 6
Waxing Crescent
Mar 8
First Quarter
Mar 16
Full
Mar 24
Last Quarter
Mar 30
New

Hourly Weather History & Observations

Time (WET) Temp. Windchill Dew Point Humidity Pressure Visibility Wind Dir Wind Speed Gust Speed Precip Events Conditions
12:00 AM 48.2 °F - 48.2 °F 100% 30.12 in 6.2 mi East 2.3 mph - N/A   Mostly Cloudy
1:00 AM 44.6 °F 43.1 °F 42.8 °F 93% 30.12 in 6.2 mi East 3.5 mph - N/A   Mostly Cloudy
2:00 AM 48.2 °F - 46.4 °F 93% 30.12 in 6.2 mi East 6.9 mph - N/A   Mostly Cloudy
3:00 AM 47 °F - 44 °F 86% 30.09 in 6 mi ENE 4.6 mph - -   Mostly Cloudy
3:00 AM 46.4 °F 44.3 °F 44.6 °F 93% 30.09 in 6.2 mi ENE 4.6 mph - N/A   Mostly Cloudy
4:00 AM 46.4 °F 42.9 °F 44.6 °F 93% 30.09 in 6.2 mi East 6.9 mph - N/A   Scattered Clouds
5:00 AM 42.8 °F 40.1 °F 41.0 °F 93% 30.06 in 6.2 mi SE 4.6 mph - N/A   Partly Cloudy
6:00 AM 36 °F - 34 °F 90% 30.12 in 6 mi SSE 3.5 mph - -   Scattered Clouds
6:00 AM 35.6 °F 31.7 °F 33.8 °F 93% 30.06 in 6.2 mi SSE 4.6 mph - N/A   Partly Cloudy
7:00 AM 33.8 °F 29.6 °F 32.0 °F 93% 30.06 in - SSE 4.6 mph - N/A   Clear
8:00 AM 46.4 °F 44.3 °F 41.0 °F 81% 30.06 in - ESE 4.6 mph - N/A   Clear
9:00 AM 55 °F - 43 °F 55% 30.10 in 6 mi ENE 8.1 mph - -  
9:00 AM 55.4 °F - 42.8 °F 63% 30.09 in - ENE 8.1 mph - N/A   Clear
10:00 AM 60.8 °F - 46.4 °F 59% 30.09 in - NE 8.1 mph - N/A   Clear
11:00 AM 62.6 °F - 46.4 °F 55% 30.09 in - NE 8.1 mph - N/A   Clear
12:00 PM 66 °F - 49 °F 44% 30.02 in 6 mi NE 11.5 mph - -  
12:00 PM 66.2 °F - 50.0 °F 56% 30.06 in - NE 11.5 mph - N/A   Clear
2:00 PM 69.8 °F - 48.2 °F 46% 30.01 in - NE 11.5 mph - N/A   Clear
3:00 PM 72 °F - 45 °F 26% 29.94 in 6 mi NE 9.2 mph - -  
3:00 PM 71.6 °F - 44.6 °F 38% 30.01 in - NE 9.2 mph - N/A   Clear
4:00 PM 71.6 °F - 42.8 °F 35% 29.98 in - NE 8.1 mph - N/A   Clear
5:00 PM 69.8 °F - 48.2 °F 46% 29.98 in - NE 6.9 mph - N/A   Clear
6:00 PM 66 °F - 49 °F 43% 29.97 in 6 mi ENE 5.8 mph - -  
6:00 PM 66.2 °F - 48.2 °F 52% 30.01 in - ENE 5.8 mph - N/A   Clear
7:00 PM 57.2 °F - 50.0 °F 77% 30.01 in - ESE 8.1 mph - N/A   Clear
8:00 PM 53.6 °F - 46.4 °F 77% 30.04 in - SSE 6.9 mph - N/A   Clear
9:00 PM 50 °F - 45 °F 78% 30.07 in 6 mi SSW 4.6 mph - -  
9:00 PM 50.0 °F - 44.6 °F 82% 30.04 in - SSW 4.6 mph - N/A   Clear
10:00 PM 48.2 °F - 42.8 °F 82% 30.04 in - SSE 6.9 mph - N/A   Clear
11:00 PM 48.2 °F - 41.0 °F 76% 30.04 in - SSE 6.9 mph - N/A   Clear